TimeHST,TemperatureF,Dew PointF,Humidity,Sea Level PressureIn,VisibilityMPH,Wind Direction,Wind SpeedMPH,Gust SpeedMPH,PrecipitationIn,Events,Conditions,WindDirDegrees,DateUTC
12:55 AM,69.4,64.8,85,30.06,10.0,East,12.7,19.6,N/A,,Mostly Cloudy,80,2013-07-12 10:55:00
1:55 AM,68.4,63.7,85,30.05,10.0,Calm,Calm,-,N/A,,Scattered Clouds,0,2013-07-12 11:55:00
2:55 AM,70.7,64.4,80,30.05,10.0,ENE,5.8,-,N/A,,Partly Cloudy,60,2013-07-12 12:55:00
3:55 AM,68.9,63.1,82,30.03,10.0,NW,3.5,-,N/A,,Clear,310,2013-07-12 13:55:00
4:55 AM,68.4,63.9,85,30.02,10.0,Calm,Calm,-,N/A,,Clear,0,2013-07-12 14:55:00
5:55 AM,66.9,62.8,87,30.03,10.0,West,5.8,-,N/A,,Clear,280,2013-07-12 15:55:00
6:55 AM,66.6,63.3,89,30.04,10.0,WNW,4.6,-,N/A,,Scattered Clouds,300,2013-07-12 16:55:00
7:55 AM,71.6,65.3,80,30.04,10.0,ENE,9.2,-,N/A,,Partly Cloudy,60,2013-07-12 17:55:00
8:55 AM,74.5,65.7,74,30.04,10.0,ENE,5.8,-,N/A,,Scattered Clouds,70,2013-07-12 18:55:00
9:55 AM,75.7,66.0,72,30.04,10.0,ENE,11.5,-,N/A,,Mostly Cloudy,60,2013-07-12 19:55:00
10:55 AM,77.0,66.0,69,30.03,10.0,NE,10.4,-,N/A,,Mostly Cloudy,50,2013-07-12 20:55:00
11:55 AM,78.3,65.8,65,30.03,10.0,ENE,10.4,-,0.01,,Scattered Clouds,60,2013-07-12 21:55:00
12:55 PM,78.3,66.0,66,30.02,10.0,East,11.5,19.6,N/A,,Overcast,90,2013-07-12 22:55:00
1:52 PM,77.0,66.2,69,30.01,9.0,East,12.7,20.7,N/A,,Light Drizzle,80,2013-07-12 23:52:00
1:55 PM,77.0,67.1,71,30.01,8.0,ENE,11.5,20.7,0.00,,Light Drizzle,70,2013-07-12 23:55:00
1:57 PM,77.0,68.0,74,30.01,8.0,ENE,11.5,-,N/A,,Light Drizzle,60,2013-07-12 23:57:00
1:58 PM,77.0,68.0,74,30.01,8.0,NE,13.8,-,N/A,,Light Drizzle,50,2013-07-12 23:58:00
2:04 PM,75.2,68.0,78,30.01,9.0,NE,10.4,-,N/A,,Light Drizzle,50,2013-07-13 00:04:00
2:05 PM,75.2,68.0,78,30.01,10.0,ENE,9.2,-,N/A,,Light Drizzle,60,2013-07-13 00:05:00
2:10 PM,75.2,68.0,78,30.01,10.0,ENE,11.5,-,N/A,,Mostly Cloudy,70,2013-07-13 00:10:00
2:13 PM,77.0,68.0,74,30.01,10.0,ENE,8.1,16.1,N/A,,Mostly Cloudy,60,2013-07-13 00:13:00
2:14 PM,77.0,68.0,74,30.01,10.0,ENE,9.2,16.1,N/A,,Mostly Cloudy,60,2013-07-13 00:14:00
2:20 PM,77.0,68.0,74,30.01,10.0,East,13.8,21.9,N/A,,Mostly Cloudy,100,2013-07-13 00:20:00
2:21 PM,77.0,66.2,69,30.01,10.0,East,12.7,21.9,N/A,,Mostly Cloudy,100,2013-07-13 00:21:00
2:31 PM,77.0,66.2,69,30.00,10.0,East,10.4,16.1,N/A,,Mostly Cloudy,90,2013-07-13 00:31:00
2:55 PM,77.5,66.4,68,30.00,10.0,ENE,15.0,21.9,0.00,,Mostly Cloudy,70,2013-07-13 00:55:00
3:55 PM,76.1,66.0,71,30.00,10.0,Variable,6.9,-,N/A,,Overcast,0,2013-07-13 01:55:00
4:28 PM,75.2,66.2,73,30.00,8.0,ENE,8.1,-,N/A,,Light Drizzle,60,2013-07-13 02:28:00
4:44 PM,73.4,66.2,78,30.00,7.0,NE,9.2,17.3,N/A,,Light Drizzle,50,2013-07-13 02:44:00
4:45 PM,73.4,66.2,78,29.99,6.0,NE,9.2,17.3,N/A,,Haze,50,2013-07-13 02:45:00
4:46 PM,73.4,66.2,78,30.00,5.0,NE,9.2,17.3,N/A,Rain,Light Rain,50,2013-07-13 02:46:00
4:52 PM,73.4,68.0,83,30.00,4.0,ENE,10.4,17.3,N/A,,Haze,60,2013-07-13 02:52:00
4:53 PM,73.4,68.0,83,30.00,4.0,ENE,10.4,17.3,N/A,Rain,Light Rain,70,2013-07-13 02:53:00
4:54 PM,73.4,68.0,83,30.00,4.0,ENE,10.4,17.3,N/A,Rain,Light Rain,70,2013-07-13 02:54:00
4:55 PM,72.9,67.6,84,30.00,4.0,ENE,10.4,17.3,0.01,,Light Drizzle,70,2013-07-13 02:55:00
5:05 PM,73.4,68.0,83,30.00,10.0,ENE,6.9,-,N/A,,Scattered Clouds,70,2013-07-13 03:05:00
5:30 PM,73.4,68.0,83,29.99,10.0,Variable,5.8,-,N/A,,Mostly Cloudy,0,2013-07-13 03:30:00
5:33 PM,73.4,68.0,83,29.99,10.0,ENE,6.9,-,N/A,,Mostly Cloudy,60,2013-07-13 03:33:00
5:35 PM,73.4,68.0,83,29.99,10.0,ENE,9.2,-,N/A,,Mostly Cloudy,70,2013-07-13 03:35:00
5:37 PM,73.4,68.0,83,29.99,10.0,ENE,9.2,-,N/A,,Mostly Cloudy,60,2013-07-13 03:37:00
5:42 PM,73.4,68.0,83,29.99,10.0,ENE,9.2,17.3,N/A,,Mostly Cloudy,60,2013-07-13 03:42:00
5:55 PM,73.8,67.1,80,29.99,10.0,East,15.0,-,0.00,,Partly Cloudy,80,2013-07-13 03:55:00
6:32 PM,73.4,66.2,78,30.00,10.0,ENE,10.4,-,N/A,,Light Drizzle,70,2013-07-13 04:32:00
6:41 PM,71.6,66.2,83,30.01,10.0,East,12.7,20.7,N/A,,Partly Cloudy,80,2013-07-13 04:41:00
6:55 PM,72.1,65.7,80,30.01,10.0,East,9.2,-,0.00,,Scattered Clouds,100,2013-07-13 04:55:00
7:55 PM,71.4,64.4,78,30.01,10.0,ENE,19.6,-,N/A,,Clear,70,2013-07-13 05:55:00
7:57 PM,71.6,64.4,78,30.01,10.0,ENE,19.6,-,N/A,,Partly Cloudy,70,2013-07-13 05:57:00
8:05 PM,71.6,64.4,78,30.02,10.0,ENE,16.1,-,N/A,,Light Drizzle,70,2013-07-13 06:05:00
8:16 PM,69.8,64.4,83,30.03,10.0,ENE,12.7,-,N/A,,Partly Cloudy,70,2013-07-13 06:16:00
8:33 PM,69.8,66.2,88,30.04,10.0,East,9.2,-,N/A,,Light Drizzle,100,2013-07-13 06:33:00
8:55 PM,69.6,65.7,87,30.04,9.0,NE,3.5,-,0.01,Rain,Light Rain,50,2013-07-13 06:55:00
9:09 PM,69.8,66.2,88,30.04,10.0,North,4.6,-,N/A,,Partly Cloudy,350,2013-07-13 07:09:00
9:12 PM,69.8,66.2,88,30.04,10.0,North,4.6,-,N/A,,Light Drizzle,360,2013-07-13 07:12:00
9:40 PM,69.8,66.2,88,30.04,10.0,Calm,Calm,-,N/A,,Scattered Clouds,0,2013-07-13 07:40:00
9:46 PM,69.8,66.2,88,30.04,10.0,Variable,3.5,-,N/A,,Light Drizzle,0,2013-07-13 07:46:00
9:55 PM,70.2,66.7,89,30.04,10.0,NE,5.8,-,0.01,,Light Drizzle,50,2013-07-13 07:55:00
9:56 PM,69.8,66.2,88,30.04,10.0,NE,5.8,-,N/A,,Partly Cloudy,50,2013-07-13 07:56:00
10:18 PM,69.8,66.2,88,30.04,10.0,ENE,8.1,-,N/A,,Light Drizzle,60,2013-07-13 08:18:00
10:55 PM,70.2,66.6,88,30.04,10.0,NNE,6.9,-,0.01,,Light Drizzle,30,2013-07-13 08:55:00
10:59 PM,69.8,66.2,88,30.04,10.0,NNE,6.9,-,N/A,,Mostly Cloudy,20,2013-07-13 08:59:00
11:55 PM,69.8,65.7,87,30.02,10.0,NE,13.8,-,0.00,,Mostly Cloudy,50,2013-07-13 09:55:00